Change the Weather History Date:

Sunday, March 16, 2014

  Actual Average Record
Temperature  
Mean Temperature 16 °F -  
Max Temperature 21 °F 37 °F 66 °F (2012)
Min Temperature 12 °F 22 °F 6 °F (1992)
Degree Days  
Heating Degree Days 50    
Moisture  
Dew Point 5 °F    
Average Humidity 60    
Maximum Humidity 71    
Minimum Humidity 47    
Precipitation  
Precipitation 0.00 in - - ()
Sea Level Pressure  
Sea Level Pressure 30.33 in    
Wind  
Wind Speed 12 mph (NNW)    
Max Wind Speed 18 mph    
Max Gust Speed 23 mph    
Visibility 9 miles    
Events Snow    
Averages and records for this station are not official NWS values.
T = Trace of Precipitation, MM = Missing Value Source: NWS Daily Summary

Daily Weather History Graph

Daily Weather History Graph

Search for Another Location

Airport or City:

Trip Planner

Search our weather history database for the weather conditions in past years. The results will help you decide how hot, cold, wet, or windy it might be!

Date:

Astronomy

Mar. 16, 2014 Rise Set
Actual Time 7:26 AM EDT 7:23 PM EDT
Civil Twilight 6:57 AM EDT 7:51 PM EDT
Nautical Twilight 6:24 AM EDT 8:24 PM EDT
Astronomical Twilight 5:51 AM EDT 8:58 PM EDT
Moon 7:40 PM EDT (3/16) 7:08 AM EDT (3/16)
Length of Visible Light 12h 53m
Length of Day
11h 57m
Full, 100% of the Moon is Illuminated
Mar 16
Full
Mar 16
Full
Mar 23
Last Quarter
Mar 30
New
Apr 7
First Quarter

Hourly Weather History & Observations

Time (EDT) Temp. Windchill Dew Point Humidity Pressure Visibility Wind Dir Wind Speed Gust Speed Precip Events Conditions
12:53 AM 19.9 °F 7.9 °F 9.0 °F 62% 30.24 in 10.0 mi NW 11.5 mph - N/A   Clear
1:53 AM 19.9 °F 7.9 °F 9.0 °F 62% 30.26 in 10.0 mi NW 11.5 mph - N/A   Mostly Cloudy
2:49 AM 19.4 °F 7.2 °F 10.4 °F 68% 30.22 in 10.0 mi WNW 11.5 mph - N/A   Mostly Cloudy
3:07 AM 19.9 °F 6.7 °F 10.0 °F 65% 30.22 in 10.0 mi NW 13.8 mph - N/A   Overcast
3:53 AM 19.0 °F 6.1 °F 10.9 °F 71% 30.27 in 7.0 mi NW 12.7 mph - 0.00 in Snow Light Snow
4:01 AM 19.9 °F 6.7 °F 10.9 °F 68% 30.22 in 9.0 mi NW 13.8 mph - 0.00 in   Overcast
4:51 AM 19.4 °F 6.6 °F 10.4 °F 68% 30.24 in 8.0 mi NNW 12.7 mph - 0.00 in Snow Light Snow
4:53 AM 19.9 °F 6.7 °F 10.0 °F 65% 30.30 in 8.0 mi NNW 13.8 mph - 0.00 in Snow Light Snow
5:18 AM 19.0 °F 5.0 °F 9.0 °F 65% 30.25 in 6.0 mi North 15.0 mph - 0.00 in Snow Light Snow
5:32 AM 19.0 °F 4.5 °F 9.0 °F 65% 30.27 in 7.0 mi NNW 16.1 mph - 0.00 in Snow Light Snow
5:40 AM 19.0 °F 6.1 °F 8.1 °F 62% 30.27 in 7.0 mi North 12.7 mph - 0.00 in Snow Light Snow
5:53 AM 19.0 °F 5.6 °F 8.1 °F 62% 30.33 in 10.0 mi North 13.8 mph - 0.00 in   Overcast
6:16 AM 18.0 °F 4.2 °F 8.1 °F 65% 30.28 in 5.0 mi North 13.8 mph - 0.00 in Snow Light Snow
6:53 AM 16.0 °F -0.4 °F 6.1 °F 65% 30.35 in 7.0 mi NNW 18.4 mph 23.0 mph 0.00 in Snow Light Snow
7:03 AM 16.0 °F 1.7 °F 6.1 °F 65% 30.29 in 5.0 mi North 13.8 mph - 0.00 in Snow Light Snow
7:13 AM 16.0 °F 0.1 °F 5.0 °F 62% 30.30 in 9.0 mi North 17.3 mph - 0.00 in   Mostly Cloudy
7:53 AM 15.1 °F 1.1 °F 3.9 °F 61% 30.38 in 10.0 mi North 12.7 mph - 0.00 in   Mostly Cloudy
8:53 AM 16.0 °F 1.1 °F 3.9 °F 59% 30.41 in 10.0 mi North 15.0 mph - N/A   Mostly Cloudy
9:53 AM 16.0 °F -0.4 °F 3.0 °F 57% 30.43 in 10.0 mi NNW 18.4 mph - N/A   Scattered Clouds
10:45 AM 15.1 °F -0.6 °F 3.0 °F 59% 30.37 in 10.0 mi NNW 16.1 mph - N/A   Mostly Cloudy
10:53 AM 16.0 °F 1.1 °F 3.9 °F 59% 30.44 in 10.0 mi North 15.0 mph - N/A   Mostly Cloudy
11:53 AM 16.0 °F 2.9 °F 3.9 °F 59% 30.45 in 10.0 mi North 11.5 mph - N/A   Mostly Cloudy
12:32 PM 15.1 °F 1.8 °F 1.9 °F 56% 30.39 in 10.0 mi North 11.5 mph - N/A   Mostly Cloudy
12:53 PM 16.0 °F 2.3 °F 3.9 °F 59% 30.45 in 10.0 mi NNE 12.7 mph - N/A   Mostly Cloudy
1:53 PM 15.1 °F 7.7 °F 3.0 °F 59% 30.45 in 10.0 mi Variable 4.6 mph - 0.00 in   Mostly Cloudy
2:53 PM 17.1 °F 5.8 °F 3.0 °F 54% 30.42 in 10.0 mi North 9.2 mph 16.1 mph N/A   Scattered Clouds
3:53 PM 17.1 °F 5.0 °F 1.9 °F 52% 30.40 in 10.0 mi NNE 10.4 mph - N/A   Partly Cloudy
4:53 PM 17.1 °F 5.8 °F -0.0 °F 47% 30.38 in 10.0 mi NNE 9.2 mph - N/A   Partly Cloudy
5:53 PM 16.0 °F 6.3 °F -0.0 °F 49% 30.35 in 10.0 mi North 6.9 mph - N/A   Partly Cloudy
6:53 PM 16.0 °F 6.3 °F -0.9 °F 47% 30.35 in 10.0 mi NNE 6.9 mph - N/A   Partly Cloudy
7:53 PM 14.0 °F 6.5 °F -0.0 °F 54% 30.36 in 10.0 mi North 4.6 mph - N/A   Partly Cloudy
8:53 PM 14.0 °F - 1.0 °F 56% 30.35 in 10.0 mi Calm Calm - N/A   Partly Cloudy
9:53 PM 14.0 °F - 1.0 °F 56% 30.34 in 10.0 mi Calm Calm - N/A   Scattered Clouds
10:53 PM 12.9 °F - 1.9 °F 62% 30.33 in 10.0 mi Calm Calm - N/A   Partly Cloudy
11:53 PM 14.0 °F - 3.0 °F 62% 30.32 in 10.0 mi Calm Calm - N/A   Clear